Wind_Speed
18 13 12 15 16 15 15 15 15 16 18 18 18 17 17 17 17 17 16 16 16 16 15 15 16 15 15 15 15 16 17 17 17 15 13 12 13 14 14 14 14 14 14 13 12 11 11 11 10 10 10 10 11 11 12 12 12 11 9 9 9 8
18 14 14 15 15 16 16 17 16 17 18 18 18 18 17 16 17 17 17 17 16 16 15 15 16 16 15 13 13 14 15 16 17 17 15 13 13 13 14 15 15 15 15 15 13 12 12 12 11 11 11 11 11 12 12 12 12 11 10 10 10 9
18 16 16 16 16 15 16 19 19 19 19 18 18 18 17 17 18 19 19 18 16 15 15 15 16 16 15 13 12 13 15 16 17 18 17 15 14 14 14 15 15 16 16 15 14 13 13 13 12 12 12 12 12 12 13 13 12 11 11 11 11 10
18 17 17 17 16 15 18 20 20 20 20 18 18 18 18 19 20 20 20 18 15 16 15 15 17 16 15 13 11 12 14 15 16 17 17 16 16 15 15 15 16 16 16 15 13 14 15 14 13 13 13 13 13 13 13 13 13 13 12 12 12 11
19 19 19 18 17 18 19 20 20 20 18 18 19 18 19 19 19 19 20 18 16 17 16 16 17 17 16 14 12 12 13 15 16 16 16 17 17 17 16 16 16 16 16 14 13 15 16 15 14 13 13 13 14 14 14 13 12 13 13 12 12 11
21 20 20 19 18 19 19 20 20 20 19 19 18 17 19 19 19 19 20 19 18 18 18 17 18 19 18 15 13 13 13 14 15 15 15 18 18 17 17 17 16 16 16 14 14 16 16 15 15 14 14 14 14 14 14 13 12 13 13 13 12 12
21 20 20 19 19 20 20 20 19 18 17 16 16 18 19 18 19 20 20 20 20 20 20 19 18 19 19 17 14 13 13 13 15 15 16 18 18 18 18 18 17 17 16 14 14 16 16 16 15 14 15 15 14 14 14 14 13 13 13 13 12 12
20 21 22 20 20 19 18 18 16 16 16 15 14 16 17 17 17 18 19 21 22 22 20 18 17 18 20 18 15 13 13 13 15 15 17 19 18 18 18 18 18 17 17 16 15 17 17 16 15 14 15 15 15 14 14 14 14 13 13 13 12 12
22 23 20 17 16 16 15 16 16 17 17 18 16 17 19 21 20 20 21 23 24 22 19 19 19 18 19 18 17 15 14 14 15 16 17 19 19 19 19 19 19 18 19 18 18 18 17 16 16 14 14 15 14 14 14 15 14 13 13 13 12 12
26 24 18 16 17 19 19 19 20 18 17 19 21 23 24 25 24 25 26 26 27 26 24 24 22 21 20 19 19 18 15 14 15 17 18 19 20 20 19 19 19 19 20 20 20 19 18 17 16 15 14 14 14 14 15 15 15 13 13 13 12 12
24 22 20 20 21 21 21 20 21 22 23 24 25 26 27 27 27 27 28 28 28 27 27 26 23 22 21 19 20 20 18 16 17 18 20 20 21 21 21 20 19 20 21 21 20 20 19 18 16 15 15 14 14 15 15 15 15 14 13 12 12 11
22 21 23 24 22 20 21 21 22 23 25 25 25 26 27 27 28 28 28 28 27 27 27 26 23 22 20 18 20 21 21 19 19 20 21 21 22 22 22 21 20 20 21 21 21 20 20 19 17 15 15 15 15 16 16 16 15 14 13 12 11 10
24 23 24 23 22 21 21 23 23 23 23 24 24 24 25 26 27 27 27 26 27 26 26 26 24 22 21 20 21 22 23 22 21 21 22 23 24 24 23 22 21 21 21 21 21 20 20 19 18 16 15 15 15 16 16 15 15 14 13 11 10 10
23 22 21 22 22 22 22 22 23 24 23 23 23 23 24 26 26 27 27 26 26 26 27 27 26 23 21 21 21 22 23 23 23 21 22 25 26 26 24 23 22 21 22 22 21 20 20 20 19 17 16 16 16 17 17 15 15 14 13 11 10 10
22 21 21 22 23 23 22 21 22 23 22 21 22 24 25 26 26 27 27 26 26 27 28 27 27 24 22 22 22 22 22 23 24 23 24 26 26 26 26 24 24 23 22 22 21 20 20 20 19 17 17 17 17 18 17 15 15 14 13 12 11 10
22 21 21 22 23 23 22 21 22 22 22 22 22 24 25 26 27 27 27 27 27 28 28 28 28 25 23 24 24 23 22 22 24 25 25 25 25 26 26 26 25 24 24 22 21 20 19 20 18 17 17 18 18 17 17 16 15 14 13 12 11 10
24 22 21 21 21 22 22 21 21 23 23 23 23 25 26 27 28 28 28 29 29 29 30 29 28 26 25 26 26 25 23 23 25 28 27 25 26 27 26 26 26 26 25 24 22 20 19 19 18 18 18 18 18 17 16 16 15 14 13 12 12 11
22 21 19 19 20 21 21 20 21 22 22 22 24 25 26 27 27 28 29 30 30 31 31 30 29 28 27 27 27 27 26 26 26 28 27 26 27 26 26 28 28 27 27 25 23 20 19 19 18 18 18 18 18 17 16 16 15 14 14 13 12 11
19 18 17 17 18 19 20 20 21 23 23 23 25 26 27 28 28 28 28 29 29 31 31 31 30 29 29 28 28 29 29 29 29 29 29 28 27 26 27 29 29 29 28 26 24 21 19 18 18 19 18 18 18 17 16 15 15 14 14 13 12 11
19 19 19 18 18 19 19 20 21 21 21 22 24 26 28 30 29 29 28 28 29 30 30 30 29 29 30 29 29 31 31 30 30 30 29 29 28 27 28 30 30 29 28 27 25 22 19 18 18 18 18 18 18 17 16 15 14 14 13 13 12 11
21 20 20 20 19 19 20 20 20 20 20 21 24 26 28 29 30 30 29 28 29 29 30 31 29 28 30 30 30 32 31 30 30 29 29 29 29 29 30 30 31 30 29 28 26 23 20 19 19 18 18 19 18 17 17 16 15 14 13 13 13 12
22 21 20 20 20 20 20 21 21 21 21 21 24 25 25 27 28 29 29 29 30 30 31 31 29 27 29 30 31 31 31 31 31 31 31 30 29 30 31 31 31 30 29 28 26 23 20 20 20 19 19 19 18 18 18 17 15 14 14 13 13 13
22 22 21 21 21 21 21 21 22 22 20 20 23 25 25 25 25 27 28 28 29 30 31 31 30 28 29 30 31 32 33 34 32 32 31 31 30 30 30 31 31 30 30 28 26 24 21 21 21 19 19 19 19 18 18 17 15 14 14 13 13 13
22 22 22 21 21 21 21 21 21 22 21 22 24 26 25 23 24 26 27 27 26 28 29 30 30 30 29 30 31 32 34 34 33 32 32 31 31 30 28 30 31 30 29 27 26 24 22 22 21 19 19 20 19 18 18 16 15 14 14 14 13 12
22 23 21 20 20 20 21 21 21 22 24 25 25 25 24 24 25 27 28 30 30 30 30 30 30 31 31 31 31 32 33 34 34 34 33 31 32 31 29 31 32 29 28 28 27 25 23 23 21 19 20 20 19 18 17 16 15 14 14 14 13 12
21 22 20 19 20 20 20 21 21 23 25 26 24 23 23 23 25 28 30 32 34 34 33 32 31 30 31 31 31 32 32 33 33 34 35 33 31 31 29 30 31 28 27 28 28 26 24 23 21 20 20 20 20 19 18 17 16 15 15 14 13 13
21 21 20 19 20 20 21 21 22 22 23 25 24 23 23 23 25 28 31 32 33 33 33 33 31 30 30 31 31 32 32 32 33 33 35 35 31 30 29 29 30 28 27 29 29 27 26 25 23 21 21 22 22 20 19 18 16 15 15 14 14 13
22 21 20 19 19 20 21 22 22 22 23 24 25 25 24 24 25 27 30 33 33 32 31 31 31 30 30 31 32 31 31 31 32 32 35 36 33 30 29 28 30 29 28 30 29 27 27 26 24 23 23 22 22 21 20 19 17 15 15 15 15 14
21 20 19 19 20 20 22 23 23 23 24 24 25 26 26 26 26 28 30 33 34 34 32 30 31 30 30 32 32 32 31 31 32 32 34 35 29 26 26 25 27 28 28 28 28 27 26 26 25 24 23 22 22 21 20 19 17 16 16 16 16 15
20 20 19 19 20 21 22 23 24 24 25 25 25 26 27 28 28 29 30 33 34 35 35 33 33 32 31 32 32 33 33 32 32 32 34 33 24 18 21 24 25 26 27 26 27 26 25 26 26 24 22 22 23 22 20 19 17 17 17 17 16 16
19 19 19 20 21 21 22 24 25 25 26 26 27 27 29 29 29 30 31 32 33 34 36 35 35 35 34 33 33 34 34 33 31 31 33 30 21 15 17 23 26 26 27 26 26 27 26 27 27 25 23 23 23 22 21 19 17 18 18 17 17 17
20 19 20 20 21 22 23 24 25 26 26 27 27 29 30 30 30 31 31 33 33 33 35 36 36 36 36 36 36 35 34 33 31 30 29 26 23 21 20 24 27 27 27 26 26 28 28 27 26 25 24 24 24 22 21 19 18 19 19 17 17 17
20 20 20 21 21 23 24 25 25 25 26 26 27 29 30 31 31 31 32 33 34 34 35 37 38 37 36 37 37 35 33 33 31 29 27 25 26 26 24 26 27 26 27 26 25 26 28 27 26 26 25 25 23 21 21 20 19 19 19 18 18 18
21 21 21 22 22 23 23 24 24 24 24 26 27 29 30 31 32 32 33 34 36 37 36 37 37 37 37 37 36 35 34 33 32 30 26 24 25 24 23 25 27 26 26 25 22 22 25 26 26 25 24 24 23 22 22 20 19 20 21 20 18 18
22 22 22 23 23 23 23 24 24 23 24 26 28 30 31 32 33 34 35 35 37 38 37 37 37 36 37 37 36 35 34 32 32 31 26 23 22 22 22 24 26 26 26 25 23 22 25 27 27 25 25 25 24 23 22 21 21 21 21 20 19 19
23 23 23 24 23 24 24 25 25 26 26 27 29 30 32 33 34 36 37 37 38 39 39 39 37 35 35 36 37 35 34 32 31 31 28 23 21 21 22 24 26 27 27 26 26 26 28 28 27 27 27 26 25 23 23 22 22 22 22 21 20 20
23 24 24 24 24 24 25 26 26 27 27 28 28 29 31 32 34 36 38 39 39 40 41 40 39 37 34 33 35 34 33 32 31 31 30 25 22 22 23 24 27 28 28 28 29 29 30 29 28 28 28 27 26 24 24 23 23 23 24 23 21 21
Wind_Direction
272 272 288 298 292 285 287 285 282 279 277 274 272 270 271 274 274 270 269 270 273 276 282 290 295 297 302 304 305 307 307 305 303 302 301 301 302 304 306 310 313 313 311 310 310 310 310 310 312 313 314 315 315 316 318 319 318 316 318 319 319 317
284 292 301 304 300 290 285 282 281 279 272 268 267 267 268 268 264 261 263 266 270 275 282 290 293 294 297 301 304 305 304 302 299 297 296 296 298 301 304 307 311 311 308 308 308 308 309 308 310 312 313 314 314 313 314 315 314 314 315 317 315 313
291 298 301 300 301 293 287 283 280 276 267 263 265 264 262 261 256 255 259 264 271 277 284 292 291 291 293 297 303 303 301 297 294 291 291 294 296 298 300 304 308 310 309 308 307 306 307 307 307 310 311 313 313 312 311 311 311 308 307 309 311 309
292 296 295 293 296 294 291 284 276 275 270 265 263 259 257 256 252 254 262 266 272 279 286 289 286 287 289 291 295 298 296 291 288 285 286 291 294 295 296 298 302 308 311 307 301 303 306 305 304 306 309 310 309 309 310 309 308 305 303 303 305 306
287 291 289 288 295 295 290 283 277 275 273 264 256 254 256 257 255 260 268 271 273 278 283 284 283 286 287 286 286 288 289 285 282 280 283 286 290 293 293 295 296 303 311 302 291 298 303 303 302 304 306 306 306 307 308 309 306 302 300 301 303 306
281 285 286 287 293 294 288 281 277 273 267 257 253 259 262 261 260 262 268 275 278 279 284 287 286 287 284 281 281 279 281 279 276 275 276 280 285 290 291 292 291 296 307 298 287 296 301 301 301 302 303 303 303 304 306 308 304 297 294 296 301 305
274 281 285 287 288 288 285 276 272 271 265 258 261 268 266 260 257 258 265 273 278 279 282 285 286 287 286 284 281 279 279 275 272 272 270 275 283 287 287 290 289 290 298 296 290 296 299 299 299 299 301 301 302 303 304 303 299 294 292 293 298 302
275 287 286 283 280 283 283 274 273 274 270 271 273 269 266 266 262 263 270 274 277 280 283 287 288 291 293 291 287 284 281 272 270 270 269 275 281 281 283 286 286 286 288 288 286 290 294 296 296 296 297 298 299 301 300 298 295 293 291 291 294 298
295 295 283 272 270 280 285 280 282 278 271 273 273 269 272 275 273 272 274 275 277 281 288 291 292 294 293 291 289 286 280 269 265 266 268 274 277 277 281 282 284 284 282 282 281 284 289 292 292 293 293 294 296 296 294 291 290 290 287 288 291 295
305 296 280 275 279 289 292 289 288 284 280 278 276 277 279 279 277 277 275 276 277 280 286 288 290 292 289 288 289 286 279 267 262 264 267 271 273 275 278 280 281 281 279 280 282 283 285 287 289 290 290 292 292 290 287 285 284 284 283 284 289 294
303 290 274 274 282 287 287 288 287 286 288 287 285 285 285 284 283 281 279 279 280 281 283 285 288 290 288 285 283 283 281 272 266 265 266 266 269 271 274 278 279 278 277 278 281 283 284 285 285 285 286 288 287 284 282 281 280 279 280 282 286 293
305 293 278 276 285 290 286 285 285 284 285 285 285 288 289 289 287 285 284 284 284 284 284 285 290 293 293 290 282 283 284 278 272 266 263 263 264 266 269 274 277 278 277 277 279 281 282 283 283 281 281 282 281 278 277 277 277 276 276 277 281 289
306 301 289 286 293 299 294 290 289 287 288 288 287 289 291 291 290 290 289 288 288 289 289 290 293 295 297 294 287 286 284 279 275 268 264 263 262 263 266 270 274 277 276 276 277 278 280 282 281 278 276 277 276 275 274 274 274 275 275 275 277 285
304 303 294 290 292 292 293 294 291 289 291 293 294 294 294 294 293 293 292 292 292 291 291 291 292 294 292 288 286 283 280 277 275 273 268 264 264 264 265 268 272 275 274 274 275 277 279 279 278 275 273 273 272 272 272 273 274 275 275 276 277 284
299 299 295 294 291 287 288 293 292 289 288 291 294 295 294 295 293 293 293 292 291 289 288 289 289 290 288 285 285 281 277 272 270 275 273 267 266 266 267 269 271 273 273 273 275 276 276 275 273 271 271 270 269 270 272 275 274 272 274 276 278 284
293 294 295 294 292 287 286 288 291 290 287 287 290 291 292 292 291 291 290 287 286 285 286 288 289 290 289 287 285 281 277 270 266 275 278 269 265 267 268 268 269 272 272 271 272 273 273 272 268 265 266 267 267 269 272 274 273 271 272 275 278 284
295 296 296 296 296 294 288 288 294 295 289 287 288 290 290 290 290 290 288 285 283 284 286 289 291 292 291 288 287 284 280 274 270 274 277 270 265 266 265 267 269 270 269 268 268 269 270 269 264 261 262 265 266 268 271 273 273 272 271 273 277 282
299 300 301 302 302 299 294 292 300 302 294 288 288 289 289 288 289 289 289 289 287 287 289 291 294 294 292 291 292 292 287 283 279 275 273 270 268 266 263 266 269 267 266 265 264 265 267 266 261 259 260 263 266 268 270 272 272 271 270 272 276 281
298 300 302 302 301 299 297 295 299 301 295 290 289 288 286 286 286 286 288 290 290 290 291 292 293 292 290 290 292 293 291 288 286 281 274 270 268 267 265 266 266 265 265 264 262 260 261 261 257 256 259 262 264 266 268 270 271 270 269 271 275 281
293 297 300 298 296 294 295 296 297 298 297 296 296 291 285 282 281 281 283 286 289 289 289 290 291 289 288 289 292 293 292 289 288 286 278 273 272 269 267 266 264 263 263 263 261 258 257 256 253 254 257 258 259 262 265 266 267 266 266 268 273 278
293 296 297 295 294 294 296 297 298 297 296 298 301 294 285 281 278 276 279 282 285 287 289 290 289 289 288 289 291 291 291 290 289 287 282 280 277 271 267 263 261 260 259 261 260 256 255 252 249 249 252 253 255 258 261 261 260 261 263 266 269 273
292 294 295 295 295 297 298 297 296 295 292 298 305 299 286 279 276 274 276 281 285 288 289 289 288 290 289 287 288 287 288 290 290 287 285 284 279 273 266 258 256 257 255 256 257 255 254 250 245 245 248 251 253 256 256 255 254 255 258 262 266 271
291 293 293 295 296 297 297 295 294 293 292 299 308 306 294 284 281 279 280 286 293 293 288 286 287 290 289 287 287 286 287 289 290 288 287 286 279 276 269 254 248 253 253 253 254 252 250 246 242 243 248 250 252 254 254 253 251 252 255 258 261 268
289 291 292 294 296 297 296 294 292 290 291 295 300 305 304 298 292 287 286 290 295 296 291 287 288 289 289 288 287 286 286 288 290 290 289 286 280 279 273 252 241 245 249 250 251 248 245 241 238 242 246 247 249 252 253 251 249 251 255 256 259 267
287 289 291 292 293 294 294 291 289 288 289 293 296 300 303 300 294 289 288 288 290 294 294 292 290 289 289 289 288 286 286 287 289 291 290 287 281 279 275 257 242 239 244 248 249 247 243 237 235 240 244 244 246 250 251 249 249 252 254 255 258 265
284 285 286 286 286 287 287 286 285 286 288 293 296 297 298 297 294 292 289 288 288 292 293 292 290 290 288 286 288 287 286 287 289 291 291 289 283 278 276 262 246 239 244 248 247 245 242 235 231 236 241 241 242 247 251 251 251 251 253 257 260 263
281 282 283 283 282 282 283 284 284 286 288 292 295 296 296 294 292 291 289 288 288 290 292 291 289 290 290 286 286 287 288 289 289 291 292 290 285 277 273 264 249 241 243 245 243 244 242 233 229 232 236 238 240 244 248 248 250 252 254 259 260 261
281 282 282 283 282 282 284 286 288 289 290 292 295 296 294 292 289 288 287 288 287 288 291 292 290 289 288 286 285 285 287 288 288 290 291 289 282 274 269 260 249 241 240 240 239 242 240 233 230 231 232 235 239 243 244 244 248 252 254 259 260 259
283 283 284 285 285 287 289 290 292 293 293 294 294 294 294 292 289 286 286 286 286 287 288 290 291 289 288 286 285 286 286 286 287 289 291 288 278 269 263 252 243 239 237 237 237 240 238 233 232 233 232 234 237 240 242 243 245 248 250 255 258 258
284 284 285 286 287 289 292 293 294 295 295 295 294 293 293 291 289 287 286 286 286 287 288 287 288 288 289 288 289 291 288 287 289 290 294 289 271 262 259 243 236 237 234 234 237 239 235 232 235 235 234 236 237 238 241 241 241 245 248 251 255 256
284 285 286 288 289 290 291 292 293 294 293 293 292 291 291 290 290 289 288 287 286 287 287 286 284 283 285 287 290 294 291 289 289 289 296 290 268 264 259 239 233 235 233 233 235 238 234 229 233 235 236 237 236 237 240 241 241 244 248 250 253 255
287 287 288 288 289 290 291 291 291 291 291 291 290 290 290 290 291 291 290 289 287 286 286 285 284 281 281 283 286 291 291 290 287 285 292 292 283 282 267 242 234 233 234 236 239 242 236 228 232 237 236 235 233 233 237 240 242 244 247 250 252 253
288 288 288 288 289 289 290 291 290 290 290 289 288 287 288 289 291 292 292 291 289 288 287 286 285 282 281 282 282 285 287 286 284 283 285 290 291 286 267 246 237 232 235 240 245 243 231 227 236 238 234 234 234 234 236 239 241 242 246 250 249 249
286 288 289 289 289 290 291 292 292 292 290 289 286 285 286 287 289 290 291 290 288 287 287 287 286 283 282 281 281 280 281 282 281 279 280 284 288 284 265 246 237 234 236 240 245 239 228 232 239 237 235 237 237 237 238 237 239 243 247 248 248 248
287 289 290 290 291 292 293 294 295 295 293 289 287 287 287 286 286 287 287 288 287 287 286 287 288 288 284 280 278 277 277 277 276 275 276 279 283 281 264 247 238 237 238 239 241 238 235 237 238 237 240 240 237 237 238 235 238 246 248 247 248 249
287 288 289 290 292 293 295 296 297 296 294 291 290 289 288 286 284 285 286 287 288 289 287 286 288 291 289 280 275 275 275 274 273 272 271 271 276 274 262 250 243 241 240 239 239 240 240 240 239 241 244 241 237 236 237 237 237 243 248 249 249 248
285 286 287 288 291 293 295 297 297 296 295 293 292 290 288 286 284 284 285 287 289 289 290 289 286 287 289 282 274 273 276 275 272 270 268 265 266 267 260 252 246 243 241 239 240 241 243 243 242 244 243 239 237 237 239 239 235 236 244 249 248 248
Height
5850 5851 5852 5852 5852 5851 5850 5848 5847 5846 5846 5845 5845 5844 5844 5844 5843 5842 5841 5841 5841 5841 5841 5841 5840 5841 5841 5841 5840 5839 5838 5837 5837 5838 5839 5840 5839 5839 5839 5839 5838 5838 5837 5837 5837 5836 5836 5835 5835 5835 5835 5834 5834 5834 5834 5834 5834 5833 5833 5833 5832 5832
5850 5852 5851 5851 5850 5849 5848 5846 5845 5844 5843 5843 5843 5843 5843 5842 5841 5840 5839 5839 5839 5839 5840 5840 5840 5840 5840 5840 5839 5838 5837 5836 5836 5836 5837 5838 5839 5838 5838 5837 5837 5837 5836 5836 5836 5836 5835 5835 5834 5834 5834 5834 5834 5834 5833 5833 5833 5833 5832 5832 5832 5832
5850 5850 5849 5849 5848 5847 5845 5844 5843 5843 5841 5841 5842 5842 5841 5840 5839 5838 5837 5837 5838 5839 5838 5838 5839 5839 5838 5839 5839 5838 5837 5836 5835 5834 5835 5836 5837 5838 5837 5836 5836 5835 5835 5835 5835 5835 5834 5834 5834 5833 5833 5833 5833 5833 5833 5832 5832 5832 5832 5831 5831 5831
5848 5847 5847 5846 5846 5844 5843 5842 5842 5840 5839 5840 5841 5840 5839 5838 5837 5836 5835 5836 5838 5838 5837 5838 5838 5838 5837 5837 5837 5837 5836 5835 5834 5834 5833 5834 5835 5836 5836 5835 5835 5834 5834 5834 5834 5834 5834 5833 5833 5833 5832 5832 5832 5832 5832 5832 5831 5831 5831 5830 5830 5830
5845 5845 5844 5843 5843 5843 5842 5841 5840 5838 5838 5839 5840 5838 5837 5836 5836 5836 5835 5835 5838 5838 5837 5837 5837 5836 5836 5836 5836 5836 5835 5834 5833 5833 5833 5833 5833 5834 5834 5834 5834 5834 5833 5833 5833 5833 5833 5833 5832 5832 5832 5832 5831 5831 5831 5831 5831 5830 5830 5829 5829 5829
5843 5843 5842 5841 5841 5841 5840 5839 5838 5838 5838 5839 5838 5837 5836 5836 5837 5837 5835 5834 5836 5837 5836 5836 5835 5834 5835 5835 5834 5834 5834 5833 5832 5832 5832 5832 5832 5832 5832 5833 5833 5833 5833 5832 5832 5832 5832 5832 5832 5831 5831 5831 5831 5830 5830 5830 5830 5829 5829 5829 5828 5828
5842 5842 5841 5840 5840 5839 5838 5838 5837 5837 5837 5837 5838 5837 5835 5836 5837 5837 5836 5834 5834 5835 5834 5834 5834 5833 5833 5833 5833 5833 5833 5833 5832 5831 5831 5831 5831 5831 5831 5831 5831 5832 5832 5831 5831 5831 5831 5831 5831 5831 5830 5830 5830 5830 5829 5829 5828 5828 5828 5828 5828 5828
5842 5842 5840 5838 5838 5837 5837 5837 5837 5837 5836 5835 5836 5836 5834 5835 5836 5836 5835 5833 5832 5833 5832 5832 5833 5832 5832 5831 5832 5833 5832 5831 5830 5830 5830 5830 5829 5829 5829 5829 5830 5830 5830 5830 5830 5830 5830 5830 5830 5830 5830 5829 5829 5829 5828 5828 5827 5827 5827 5827 5827 5827
5843 5842 5840 5837 5836 5836 5836 5836 5836 5837 5836 5836 5836 5836 5835 5835 5835 5834 5833 5832 5831 5832 5831 5831 5832 5832 5831 5830 5830 5831 5831 5830 5829 5828 5828 5828 5827 5827 5827 5828 5828 5828 5828 5829 5829 5829 5829 5829 5829 5829 5829 5829 5828 5828 5828 5827 5827 5826 5826 5826 5826 5826
5844 5842 5841 5839 5838 5837 5837 5836 5836 5837 5837 5838 5838 5837 5836 5836 5836 5835 5834 5833 5833 5832 5831 5830 5831 5831 5831 5830 5829 5829 5829 5829 5828 5827 5827 5826 5825 5825 5826 5826 5826 5826 5827 5827 5827 5827 5827 5827 5828 5828 5828 5828 5828 5827 5827 5827 5826 5826 5826 5825 5825 5825
5842 5841 5841 5839 5839 5837 5836 5836 5836 5837 5837 5837 5838 5837 5837 5837 5836 5836 5835 5834 5833 5832 5831 5830 5831 5831 5831 5831 5830 5828 5827 5827 5827 5826 5825 5824 5823 5823 5823 5824 5824 5825 5825 5825 5825 5825 5825 5826 5826 5827 5827 5827 5827 5827 5826 5826 5826 5825 5825 5825 5825 5824
5840 5840 5839 5838 5838 5837 5836 5836 5836 5836 5836 5836 5836 5836 5836 5836 5835 5835 5834 5834 5832 5831 5831 5830 5830 5830 5830 5831 5830 5828 5826 5825 5825 5824 5823 5822 5821 5821 5822 5822 5822 5823 5823 5823 5824 5824 5824 5824 5825 5826 5826 5826 5826 5826 5826 5825 5825 5825 5824 5824 5824 5824
5839 5839 5838 5838 5838 5837 5836 5836 5836 5836 5836 5835 5835 5835 5834 5834 5834 5833 5833 5832 5831 5830 5829 5828 5827 5827 5827 5828 5828 5827 5826 5825 5823 5823 5822 5821 5820 5819 5820 5820 5820 5821 5821 5822 5822 5822 5822 5822 5823 5824 5824 5824 5825 5824 5824 5824 5824 5823 5823 5823 5823 5823
5837 5837 5837 5837 5836 5835 5835 5835 5835 5835 5835 5835 5834 5834 5833 5832 5832 5832 5831 5831 5830 5829 5827 5826 5825 5825 5826 5826 5825 5824 5825 5825 5823 5822 5821 5819 5818 5818 5818 5818 5819 5819 5819 5820 5820 5820 5820 5821 5821 5822 5822 5823 5823 5823 5823 5823 5823 5822 5822 5822 5822 5822
5835 5836 5836 5835 5834 5834 5834 5834 5833 5833 5833 5833 5832 5831 5830 5830 5829 5830 5829 5829 5827 5826 5826 5825 5824 5824 5824 5823 5822 5822 5823 5823 5822 5821 5820 5818 5818 5817 5817 5817 5817 5817 5818 5818 5818 5818 5819 5819 5820 5820 5820 5821 5821 5821 5821 5822 5822 5822 5821 5821 5821 5821
5834 5835 5835 5833 5832 5832 5833 5833 5832 5831 5832 5831 5830 5829 5828 5827 5827 5827 5827 5826 5825 5824 5824 5823 5823 5823 5823 5821 5820 5821 5821 5821 5821 5820 5818 5817 5816 5815 5815 5816 5816 5816 5816 5816 5816 5817 5817 5817 5818 5819 5819 5819 5819 5819 5820 5821 5821 5821 5821 5820 5820 5820
5833 5833 5832 5832 5831 5831 5831 5831 5831 5830 5830 5829 5828 5827 5826 5825 5825 5825 5824 5823 5823 5822 5822 5822 5822 5822 5822 5820 5819 5819 5819 5818 5818 5818 5817 5815 5814 5814 5814 5813 5814 5814 5814 5814 5814 5815 5815 5816 5816 5817 5817 5817 5818 5818 5819 5819 5819 5820 5820 5819 5819 5819
5831 5830 5830 5830 5830 5830 5829 5829 5829 5828 5828 5827 5826 5825 5824 5824 5823 5822 5821 5821 5821 5821 5820 5820 5821 5820 5820 5819 5817 5817 5817 5816 5816 5815 5815 5814 5812 5813 5813 5812 5812 5812 5812 5812 5812 5813 5813 5814 5814 5815 5815 5816 5816 5817 5817 5818 5818 5818 5818 5818 5818 5818
5828 5828 5828 5828 5827 5827 5827 5827 5827 5826 5825 5825 5824 5823 5822 5821 5820 5819 5819 5818 5818 5818 5818 5818 5819 5818 5817 5816 5815 5814 5814 5814 5814 5813 5812 5812 5810 5810 5811 5811 5810 5810 5810 5810 5810 5811 5811 5811 5812 5813 5814 5815 5815 5815 5816 5816 5817 5817 5817 5817 5817 5817
5826 5826 5826 5826 5825 5825 5825 5825 5824 5824 5823 5822 5821 5820 5819 5818 5817 5817 5816 5815 5815 5814 5814 5814 5815 5815 5814 5814 5813 5811 5811 5811 5810 5809 5809 5809 5808 5808 5809 5809 5808 5808 5809 5808 5808 5809 5809 5809 5810 5811 5812 5813 5813 5813 5814 5815 5816 5816 5816 5816 5816 5817
5825 5825 5824 5824 5823 5823 5823 5823 5822 5822 5821 5820 5819 5817 5816 5815 5815 5814 5813 5812 5812 5811 5810 5810 5811 5812 5811 5811 5811 5809 5808 5807 5807 5806 5806 5807 5807 5806 5806 5806 5806 5807 5807 5807 5807 5807 5807 5807 5808 5810 5810 5811 5811 5812 5812 5813 5814 5814 5815 5815 5815 5815
5823 5823 5822 5822 5821 5821 5821 5821 5820 5819 5818 5817 5816 5814 5813 5813 5812 5811 5810 5810 5809 5809 5808 5807 5807 5808 5808 5807 5807 5806 5805 5805 5804 5803 5803 5804 5805 5804 5803 5803 5804 5805 5805 5805 5805 5805 5806 5806 5806 5807 5808 5809 5810 5810 5811 5811 5812 5812 5813 5813 5814 5814
5821 5821 5820 5820 5820 5819 5819 5818 5818 5817 5816 5816 5814 5812 5811 5810 5809 5807 5807 5807 5807 5806 5806 5804 5804 5805 5805 5804 5804 5803 5802 5802 5801 5800 5800 5801 5801 5801 5801 5800 5801 5802 5802 5802 5803 5803 5804 5804 5804 5805 5806 5807 5808 5809 5810 5810 5810 5811 5811 5812 5812 5813
5819 5818 5818 5818 5817 5817 5816 5816 5816 5815 5814 5813 5813 5811 5809 5807 5806 5805 5804 5804 5805 5804 5804 5802 5801 5801 5802 5801 5801 5800 5799 5797 5797 5797 5797 5798 5797 5797 5798 5798 5799 5799 5799 5799 5800 5801 5802 5801 5802 5804 5805 5805 5807 5808 5808 5809 5809 5810 5810 5810 5811 5811
5817 5816 5816 5816 5815 5815 5814 5813 5813 5812 5811 5811 5810 5809 5808 5806 5805 5803 5802 5802 5802 5802 5801 5799 5798 5798 5799 5799 5798 5797 5796 5794 5794 5793 5793 5794 5793 5793 5795 5795 5795 5795 5796 5797 5798 5799 5800 5800 5801 5802 5802 5804 5805 5806 5807 5807 5808 5809 5809 5809 5809 5809
5815 5814 5814 5814 5813 5812 5812 5811 5811 5810 5809 5808 5807 5807 5806 5805 5804 5802 5801 5799 5799 5798 5798 5796 5796 5795 5795 5795 5795 5794 5793 5792 5791 5790 5790 5790 5790 5790 5791 5792 5792 5791 5792 5794 5796 5797 5798 5798 5798 5799 5800 5801 5803 5804 5805 5805 5806 5807 5807 5808 5807 5807
5813 5812 5812 5812 5811 5810 5810 5809 5809 5808 5807 5806 5805 5804 5803 5803 5802 5801 5799 5798 5797 5796 5796 5794 5793 5792 5791 5791 5791 5791 5790 5789 5789 5788 5786 5785 5786 5786 5786 5788 5789 5790 5790 5792 5794 5795 5796 5796 5796 5797 5798 5798 5800 5801 5802 5803 5804 5805 5805 5806 5806 5806
5810 5810 5809 5809 5809 5808 5807 5807 5806 5806 5805 5804 5802 5801 5801 5800 5799 5798 5797 5795 5794 5794 5794 5792 5791 5790 5789 5787 5787 5787 5787 5787 5786 5785 5783 5781 5781 5781 5781 5782 5786 5789 5790 5790 5792 5793 5793 5794 5794 5795 5795 5796 5797 5799 5800 5801 5802 5802 5803 5804 5804 5804
5808 5807 5807 5807 5806 5805 5805 5804 5803 5803 5802 5801 5800 5799 5798 5798 5797 5796 5794 5792 5791 5791 5791 5791 5789 5787 5786 5785 5784 5784 5784 5784 5783 5782 5780 5778 5777 5777 5777 5778 5781 5785 5787 5787 5789 5790 5790 5791 5791 5792 5793 5794 5795 5796 5798 5799 5800 5801 5802 5802 5802 5803
5806 5805 5804 5804 5803 5803 5802 5801 5800 5800 5799 5799 5798 5797 5796 5795 5794 5793 5791 5790 5789 5788 5788 5788 5786 5785 5784 5782 5781 5781 5781 5780 5780 5778 5776 5775 5775 5774 5773 5774 5777 5779 5782 5784 5786 5787 5788 5789 5789 5790 5791 5793 5793 5794 5796 5797 5798 5798 5799 5800 5801 5801
5803 5803 5802 5801 5801 5800 5799 5798 5798 5797 5796 5796 5795 5794 5793 5792 5791 5790 5789 5787 5786 5786 5785 5784 5783 5782 5781 5780 5779 5778 5778 5778 5777 5774 5773 5773 5773 5773 5772 5772 5774 5776 5778 5780 5783 5784 5785 5787 5788 5788 5789 5790 5791 5792 5794 5795 5795 5796 5797 5798 5799 5799
5800 5800 5799 5798 5798 5797 5796 5796 5795 5794 5794 5793 5792 5791 5790 5789 5788 5787 5786 5785 5783 5783 5781 5780 5779 5779 5778 5777 5776 5775 5775 5775 5775 5773 5771 5772 5772 5771 5771 5771 5772 5774 5776 5778 5780 5781 5781 5784 5785 5786 5786 5787 5788 5790 5791 5792 5793 5794 5795 5796 5797 5797
5797 5797 5796 5796 5795 5794 5793 5793 5792 5792 5791 5790 5789 5788 5787 5786 5785 5784 5783 5781 5780 5779 5778 5776 5775 5775 5774 5774 5773 5773 5773 5772 5773 5772 5771 5771 5770 5769 5769 5769 5771 5773 5775 5776 5777 5777 5778 5781 5783 5784 5784 5785 5786 5788 5788 5789 5791 5791 5792 5793 5795 5795
5795 5794 5793 5793 5792 5792 5791 5790 5789 5789 5788 5787 5786 5785 5784 5783 5782 5781 5780 5778 5776 5775 5774 5773 5772 5771 5771 5771 5770 5770 5770 5770 5770 5770 5770 5769 5769 5768 5767 5768 5769 5771 5772 5773 5774 5774 5775 5778 5780 5781 5783 5783 5784 5785 5786 5787 5788 5789 5790 5791 5792 5793
5791 5791 5790 5790 5789 5788 5788 5787 5786 5786 5785 5784 5783 5782 5781 5780 5779 5778 5776 5774 5772 5771 5771 5770 5769 5768 5768 5767 5766 5766 5767 5767 5768 5768 5768 5768 5767 5766 5766 5767 5768 5769 5770 5771 5772 5772 5773 5775 5777 5779 5780 5780 5781 5782 5783 5784 5785 5786 5788 5789 5790 5791
5788 5788 5787 5786 5786 5785 5784 5783 5782 5782 5782 5781 5780 5779 5778 5777 5775 5774 5772 5770 5768 5767 5767 5767 5766 5766 5765 5764 5763 5763 5763 5764 5765 5766 5766 5766 5765 5766 5765 5766 5767 5767 5769 5770 5770 5771 5771 5773 5775 5776 5776 5777 5778 5779 5780 5781 5783 5784 5785 5786 5787 5788
5785 5785 5784 5783 5783 5782 5781 5780 5779 5779 5778 5777 5776 5775 5774 5773 5772 5770 5769 5767 5765 5764 5763 5763 5763 5764 5763 5761 5759 5759 5760 5761 5762 5763 5763 5763 5764 5764 5764 5764 5764 5765 5767 5767 5768 5769 5769 5771 5772 5772 5773 5775 5775 5776 5777 5779 5780 5781 5782 5783 5784 5785